Date String (YYYY-MM-DD hh:mm:ss) UTC,Instrument flags,absolute air pressure of the measurement (hPa),sample flow rate (lpm),inlet stack bypass flow (lpm),air temperature of the measurement (°C),ambient temperature measured by the external sensor (°C),aerosol sample conditioner tube jacket temperature (°C),OPC LED temperature (°C),internal box temperature (°C),relative humidity of the measurement (%),span deviation,mass concentration of particles derived from Lorenz-Mie calculation of OPC scattering (μg/m³),mass concentration of particles derived from Lorenz-Mie calculation of OPC scattering (μg/m³),mass concentration of particles derived from Lorenz-Mie calculation of OPC scattering (μg/m³)
DateTimeUTC,F1_M11,P_M11,Q1_M11,Q2_M11,T1_M11,T2_M11,T3_M11,T4_M11,T5_M11,U1_M11,ZSPAN_M11,X0_M11,X2_M11,X1_M11
2023-06-09 06:00:00,SystemResetWarning,0830.7,5.00,000.00,029.8,028.3,000.0,038.4,031.3,23.5,0000.0,0010.12,0003.60,0002.20
2023-06-09 06:01:00,SystemResetWarning,0831.1,4.99,000.00,029.8,028.2,000.0,038.4,031.3,23.9,0000.0,0009.12,0003.60,0002.17
2023-06-09 06:02:00,SystemResetWarning,0831.1,5.00,000.00,029.8,028.2,000.0,038.4,031.2,24.9,0000.0,0008.83,0003.59,0002.15
2023-06-09 06:03:00,SystemResetWarning,0831.2,5.01,000.00,029.8,028.2,000.0,038.4,031.2,25.1,0000.0,0008.60,0003.55,0002.15
2023-06-09 06:04:00,SystemResetWarning,0831.1,5.01,000.00,029.8,028.2,000.0,038.4,031.1,24.5,0000.0,0008.68,0003.56,0002.18
2023-06-09 06:05:00,SystemResetWarning,0831.1,5.00,000.00,029.8,028.1,000.0,038.4,031.0,23.6,0000.0,0009.21,0003.54,0002.18
2023-06-09 06:06:00,SystemResetWarning,0831.2,4.99,000.00,029.7,028.1,000.0,038.4,031.0,23.4,0000.0,0009.08,0003.55,0002.18
2023-06-09 06:07:00,SystemResetWarning,0831.2,5.00,000.00,029.7,028.1,000.0,038.4,031.0,23.5,0000.0,0008.93,0003.49,0002.16
2023-06-09 06:08:00,SystemResetWarning,0831.3,5.01,000.00,029.7,028.1,000.0,038.4,031.0,23.2,0000.0,0008.85,0003.45,0002.16
2023-06-09 06:09:00,SystemResetWarning,0831.3,5.01,000.00,029.7,028.1,000.0,038.4,031.0,23.2,0000.0,0008.66,0003.39,0002.17
2023-06-09 06:10:00,SystemResetWarning,0831.3,5.00,000.00,029.7,028.1,000.0,038.4,030.9,23.2,0000.0,0008.40,0003.33,0002.18
2023-06-09 06:11:00,SystemResetWarning,0831.3,5.00,000.00,029.7,028.1,000.0,038.4,030.9,23.5,0000.0,0008.94,0003.33,0002.19
2023-06-09 06:12:00,SystemResetWarning,0831.3,4.99,000.00,029.7,028.1,000.0,038.4,030.9,23.8,0000.0,0008.89,0003.30,0002.22
2023-06-09 06:13:00,SystemResetWarning,0831.3,4.99,000.00,029.6,028.1,000.0,038.4,030.9,23.7,0000.0,0008.79,0003.27,0002.23
2023-06-09 06:14:00,SystemResetWarning,0831.3,5.01,000.00,029.6,028.1,000.0,038.3,030.9,24.0,0000.0,0008.66,0003.22,0002.21
2023-06-09 06:15:00,SystemResetWarning,0831.3,5.01,000.00,029.6,028.1,000.0,038.3,030.9,24.0,0000.0,0008.55,0003.17,0002.19
2023-06-09 06:16:00,SystemResetWarning,0831.3,5.00,000.00,029.6,028.1,000.0,038.3,030.9,24.0,0000.0,0007.74,0003.12,0002.18
2023-06-09 06:17:00,SystemResetWarning,0831.4,4.98,000.00,029.6,028.1,000.0,038.3,031.0,24.2,0000.0,0007.39,0003.11,0002.17
2023-06-09 06:18:00,SystemResetWarning,0831.3,5.00,000.00,029.6,028.2,000.0,038.3,031.0,23.9,0000.0,0007.34,0003.12,0002.17
2023-06-09 06:19:00,SystemResetWarning,0831.4,5.01,000.00,029.6,028.2,000.0,038.3,031.1,23.9,0000.0,0007.52,0003.16,0002.17
2023-06-09 06:20:00,SystemResetWarning,0831.5,5.01,000.00,029.7,028.2,000.0,038.3,031.1,24.1,0000.0,0007.64,0003.14,0002.16
2023-06-09 06:21:00,SystemResetWarning,0831.5,5.01,000.00,029.7,028.2,000.0,038.3,031.1,24.1,0000.0,0007.77,0003.14,0002.14
2023-06-09 06:22:00,SystemResetWarning,0831.6,5.00,000.00,029.7,028.2,000.0,038.3,031.1,23.3,0000.0,0006.96,0003.17,0002.14
2023-06-09 06:23:00,SystemResetWarning,0831.6,5.00,000.00,029.7,028.2,000.0,038.3,031.1,22.8,0000.0,0007.01,0003.15,0002.13
2023-06-09 06:24:00,SystemResetWarning,0831.6,5.01,000.00,029.7,028.2,000.0,038.3,031.1,23.1,0000.0,0007.14,0003.16,0002.11
2023-06-09 06:25:00,SystemResetWarning,0831.6,4.99,000.00,029.7,028.2,000.0,038.3,031.1,23.4,0000.0,0007.21,0003.17,0002.11
2023-06-09 06:26:00,SystemResetWarning,0831.6,5.00,000.00,029.7,028.2,000.0,038.3,031.1,23.5,0000.0,0007.37,0003.22,0002.11
2023-06-09 06:27:00,SystemResetWarning,0831.6,4.99,000.00,029.7,028.2,000.0,038.3,031.1,23.6,0000.0,0007.37,0003.22,0002.11
2023-06-09 06:28:00,SystemResetWarning,0831.6,4.99,000.00,029.7,028.2,000.0,038.3,031.1,23.7,0000.0,0007.45,0003.25,0002.10
2023-06-09 06:29:00,SystemResetWarning,0831.6,5.00,000.00,029.7,028.2,000.0,038.3,031.1,24.0,0000.0,0007.60,0003.27,0002.10
2023-06-09 06:30:00,SystemResetWarning,0831.6,5.00,000.00,029.7,028.2,000.0,038.3,031.2,23.7,0000.0,0007.40,0003.23,0002.08
2023-06-09 06:31:00,SystemResetWarning,0831.6,5.00,000.00,029.7,028.2,000.0,038.3,031.2,23.5,0000.0,0007.34,0003.27,0002.08
2023-06-09 06:32:00,SystemResetWarning,0831.6,5.00,000.00,029.8,028.3,000.0,038.3,031.2,23.2,0000.0,0007.02,0003.28,0002.08
2023-06-09 06:33:00,SystemResetWarning,0831.6,5.01,000.00,029.8,028.3,000.0,038.3,031.2,22.1,0000.0,0006.67,0003.23,0002.07
2023-06-09 06:34:00,SystemResetWarning,0831.6,5.01,000.00,029.8,028.3,000.0,038.3,031.3,22.1,0000.0,0006.64,0003.20,0002.05
2023-06-09 06:35:00,SystemResetWarning,0831.6,5.00,000.00,029.8,028.4,000.0,038.4,031.3,21.9,0000.0,0006.46,0003.18,0002.04
2023-06-09 06:36:00,SystemResetWarning,0831.6,5.00,000.00,029.8,028.4,000.0,038.4,031.2,22.4,0000.0,0006.71,0003.19,0002.05
2023-06-09 06:37:00,SystemResetWarning,0831.6,4.99,000.00,029.8,028.4,000.0,038.4,031.2,22.6,0000.0,0006.65,0003.16,0002.05
2023-06-09 06:38:00,SystemResetWarning,0831.6,5.00,000.00,029.8,028.4,000.0,038.4,031.2,22.7,0000.0,0006.70,0003.18,0002.04
2023-06-09 06:39:00,SystemResetWarning,0831.6,5.00,000.00,029.8,028.3,000.0,038.4,031.2,22.6,0000.0,0006.62,0003.15,0002.03
2023-06-09 06:40:00,SystemResetWarning,0831.6,4.98,000.00,029.8,026.7,000.0,038.3,031.2,22.7,0000.0,0006.35,0003.12,0002.02
2023-06-09 06:41:00,SystemResetWarning,0831.6,5.01,000.00,029.8,024.8,000.0,038.3,031.2,22.8,0000.0,0006.26,0003.12,0002.03
2023-06-09 06:42:00,SystemResetWarning,0831.6,5.01,000.00,029.7,024.7,000.0,038.2,031.0,22.9,0000.0,0006.06,0003.07,0002.04
2023-06-09 06:43:00,SystemResetWarning,0831.6,4.98,000.00,029.6,025.0,000.0,038.2,030.8,23.0,0000.0,0005.83,0003.02,0002.04
2023-06-09 06:44:00,SystemResetWarning,0831.7,5.00,000.00,029.5,025.4,000.0,038.2,030.7,22.9,0000.0,0005.70,0003.03,0002.06
2023-06-09 06:45:00,SystemResetWarning,0831.7,5.01,000.00,029.5,025.8,000.0,038.1,030.7,22.6,0000.0,0005.49,0003.03,0002.06
2023-06-09 06:46:00,SystemResetWarning,0831.7,5.00,000.00,029.4,026.2,000.0,038.1,030.7,23.0,0000.0,0005.46,0003.05,0002.07
2023-06-09 06:47:00,SystemResetWarning,0831.7,4.99,000.00,029.4,026.5,000.0,038.1,030.7,22.7,0000.0,0005.32,0003.03,0002.08
2023-06-09 06:48:00,SystemResetWarning,0831.7,5.00,000.00,029.4,026.8,000.0,038.1,030.7,23.0,0000.0,0005.33,0002.98,0002.06
2023-06-09 06:49:00,SystemResetWarning,0831.7,5.00,000.00,029.4,027.0,000.0,038.1,030.7,22.9,0000.0,0005.52,0002.97,0002.07
2023-06-09 06:50:00,SystemResetWarning,0831.7,5.01,000.00,029.4,027.1,000.0,038.1,030.7,23.2,0000.0,0005.77,0002.98,0002.08
2023-06-09 06:51:00,SystemResetWarning,0831.6,5.00,000.00,029.4,027.3,000.0,038.0,030.7,23.2,0000.0,0005.89,0003.01,0002.09
2023-06-09 06:52:00,SystemResetWarning,0831.6,5.00,000.00,029.4,027.4,000.0,038.0,030.7,23.2,0000.0,0005.92,0003.03,0002.10
2023-06-09 06:53:00,SystemResetWarning,0831.6,5.00,000.00,029.4,027.4,000.0,038.0,030.8,23.3,0000.0,0006.01,0003.06,0002.11
2023-06-09 06:54:00,SystemResetWarning,0831.7,5.00,000.00,029.3,027.5,000.0,038.0,030.8,23.1,0000.0,0005.91,0003.03,0002.11
2023-06-09 06:55:00,SystemResetWarning,0831.7,4.99,000.00,029.3,027.6,000.0,038.0,030.8,23.4,0000.0,0005.99,0003.06,0002.11
2023-06-09 06:56:00,SystemResetWarning,0831.6,5.00,000.00,029.3,027.6,000.0,038.0,030.8,23.5,0000.0,0006.07,0003.09,0002.13
2023-06-09 06:57:00,SystemResetWarning,0831.6,5.00,000.00,029.3,027.6,000.0,038.0,030.8,23.5,0000.0,0006.06,0003.09,0002.14
2023-06-09 06:58:00,SystemResetWarning,0831.6,5.00,000.00,029.3,027.7,000.0,038.0,030.7,23.6,0000.0,0006.09,0003.09,0002.16
2023-06-09 06:59:00,SystemResetWarning,0831.6,5.00,000.00,029.3,027.7,000.0,038.0,030.7,23.6,0000.0,0006.00,0003.12,0002.18
